CZ-6A R/B, 62803

Orbit data source: Space-Track

CZ-6A R/B, 62803 is space debris in LEO originally from a launch on Thu, 23 Jan 2025 UTC launched from the Taiyaun Space Center, China (TSC). Debris objects in space refer to the collection of defunct objects orbiting the Earth. Examples of debris include non-operational satellites, rocket bodies, and fragments generated from explosions, collisions, or faulty payload assembly.

Loading next visibility...
Identifier
62803, 2025-016U
Orbit
LEO
Country
Flag of CNCN / PRC
Related business
Manufacturer
SAST
Mission
Spacecraft
Bus & Motor
CZ-6A STAGE 2, YF-115
Mass
~6,000 kg wet, ~6,000 kg dry
Launch date (UTC)
2025-01-23 (1 year ago)
Launch vehicle
Unknown
Launch site
Taiyaun Space Center, China (TSC)
Object type
Payload
Rocket body
Debris
Shape & HBR
Unknown shape, 4.4 m
Radar Cross Section
Large (>1 m²)

Expand to show TLE details & history
Last TLE update: 8 hours ago

TLE from 8 hours ago
0 CZ-6A R/B
1 62803U 25016U   26035.79103750  .00000434  00000-0  96217-4 0  9991
2 62803  89.0038  92.4358 0098081 260.5899  98.4211 14.52413880 54779
Epoch: 2026-02-04T18:59Z
TLE epoch observation values (Epoch: 2026-02-04T18:59:05.639Z)
Latitude
-0.00005°
Longitude
32.70975°
Altitude
731.736 km
Speed
7.483 km/s
True Right ascension
06h 09m 44s
True Declination
0° 00' 00"
Sunlit
Object was in full shadow at epoch
Visualization orbit readout
Latitude
Unknown
Longitude
Unknown
Altitude
Unknown
Speed
Unknown
Apparent Right ascension
Unknown
Apparent Declination
Unknown
Sunlit
N/A
Visualization observer readout
Local Sidereal Time
05:00:13
Azimuth
Unknown
Elevation
Unknown
Doppler factor
Unknown
Orbital elements
Apogee altitude
784.247 km
Perigee altitude
645.113 km
Semi-major axis
7,092.817 km
Eccentricity
0.00981
Inclination
89.0038°
RAAN
92.4358°
Arg. of periapsis
260.5899°
True anomaly
99.53085°
Mean anomaly
98.4211°
Eccentric anomaly
98.97618°
Mean motion
3.63342 °/min
Orbital period
99.08 mins
BSTAR
0.000096217
Loading maneuver chart data...
Computing Atmospheric mass density...
Loading historical data...
Loading historical data...
Loading historical data...
Loading historical data...
Loading historical data...
Loading historical data...
Loading historical data...

Documentation

Showing up to 5 results
|